Time,TemperatureF,DewpointF,PressureIn,WindDirection,WindDirectionDegrees,WindSpeedMPH,WindSpeedGustMPH,Humidity,HourlyPrecipIn,Conditions,Clouds,dailyrainin,SolarRadiationWatts/m^2,SoftwareType,DateUTC
2013-06-14 00:02:00,42.0,36.0,-100.00,West,275,7.0,15.0,79,0.00,,,0.02,0.000000,,2013-06-14 07:02:00,
2013-06-14 00:12:00,42.0,36.0,-100.00,West,275,7.0,15.0,79,0.00,,,0.02,0.000000,,2013-06-14 07:12:00,
2013-06-14 00:43:00,41.0,36.0,-100.00,WSW,251,6.0,15.0,83,0.00,,,0.02,0.000000,,2013-06-14 07:43:00,
2013-06-14 00:53:00,41.0,36.0,-100.00,WSW,251,6.0,15.0,83,0.00,,,0.02,0.000000,,2013-06-14 07:53:00,
2013-06-14 01:02:00,41.0,36.0,-100.00,WSW,251,6.0,15.0,83,0.00,,,0.02,0.000000,,2013-06-14 08:02:00,
2013-06-14 01:12:00,41.0,36.0,-100.00,WSW,251,6.0,15.0,83,0.00,,,0.02,0.000000,,2013-06-14 08:12:00,
2013-06-14 01:33:00,40.0,36.0,-100.00,SSW,205,6.0,8.0,85,0.00,,,0.02,0.000000,,2013-06-14 08:33:00,
2013-06-14 01:43:00,40.0,36.0,-100.00,SSW,205,6.0,8.0,85,0.00,,,0.02,0.000000,,2013-06-14 08:43:00,
2013-06-14 01:53:00,40.0,36.0,-100.00,SSW,205,6.0,8.0,85,0.00,,,0.02,0.000000,,2013-06-14 08:53:00,
2013-06-14 02:01:00,40.0,36.0,-100.00,SSW,205,6.0,8.0,85,0.00,,,0.02,0.000000,,2013-06-14 09:01:00,
2013-06-14 02:11:00,40.0,36.0,-100.00,SSW,205,6.0,8.0,85,0.00,,,0.02,0.000000,,2013-06-14 09:11:00,
2013-06-14 02:43:00,39.0,35.0,-100.00,South,189,8.0,10.0,87,0.00,,,0.02,0.000000,,2013-06-14 09:43:00,
2013-06-14 02:53:00,39.0,35.0,-100.00,South,189,8.0,10.0,87,0.00,,,0.02,0.000000,,2013-06-14 09:53:00,
2013-06-14 03:01:00,39.0,35.0,-100.00,South,189,8.0,10.0,87,0.00,,,0.02,0.000000,,2013-06-14 10:01:00,
2013-06-14 03:11:00,39.0,35.0,-100.00,South,189,8.0,10.0,87,0.00,,,0.02,0.000000,,2013-06-14 10:11:00,
2013-06-14 03:44:00,40.0,35.0,-100.00,South,189,8.0,14.0,83,0.00,,,0.02,0.000000,,2013-06-14 10:44:00,
2013-06-14 03:52:00,40.0,35.0,-100.00,South,189,8.0,14.0,83,0.00,,,0.02,0.000000,,2013-06-14 10:52:00,
2013-06-14 04:02:00,40.0,35.0,-100.00,South,189,8.0,14.0,83,0.00,,,0.02,0.000000,,2013-06-14 11:02:00,
2013-06-14 04:11:00,40.0,35.0,-100.00,South,189,8.0,14.0,83,0.00,,,0.02,0.000000,,2013-06-14 11:11:00,
2013-06-14 04:43:00,39.0,35.0,-100.00,SSW,193,8.0,12.0,87,0.00,,,0.02,0.000000,,2013-06-14 11:43:00,
2013-06-14 04:52:00,39.0,35.0,-100.00,SSW,193,8.0,12.0,87,0.00,,,0.02,0.000000,,2013-06-14 11:52:00,
2013-06-14 05:01:00,39.0,35.0,-100.00,SSW,193,8.0,12.0,87,0.00,,,0.02,0.000000,,2013-06-14 12:01:00,
2013-06-14 05:11:00,39.0,35.0,-100.00,SSW,193,8.0,12.0,87,0.00,,,0.02,0.000000,,2013-06-14 12:11:00,
2013-06-14 05:43:00,40.0,35.0,-100.00,WSW,255,6.0,9.0,81,0.00,,,0.02,0.000000,,2013-06-14 12:43:00,
2013-06-14 05:52:00,40.0,35.0,-100.00,WSW,255,6.0,9.0,81,0.00,,,0.02,0.000000,,2013-06-14 12:52:00,
2013-06-14 06:02:00,40.0,35.0,-100.00,WSW,255,6.0,9.0,81,0.00,,,0.02,0.000000,,2013-06-14 13:02:00,
2013-06-14 06:11:00,40.0,35.0,-100.00,WSW,255,6.0,9.0,81,0.00,,,0.02,0.000000,,2013-06-14 13:11:00,
2013-06-14 06:43:00,41.0,35.0,-100.00,West,267,4.0,9.0,79,0.00,,,-99.99,17.000000,,2013-06-14 13:43:00,
2013-06-14 06:53:00,41.0,35.0,-100.00,West,267,4.0,9.0,79,0.00,,,-99.99,17.000000,,2013-06-14 13:53:00,
2013-06-14 07:02:00,41.0,35.0,-100.00,West,267,4.0,9.0,79,0.00,,,-99.99,17.000000,,2013-06-14 14:02:00,
2013-06-14 07:11:00,41.0,35.0,-100.00,West,267,4.0,9.0,79,0.00,,,-99.99,17.000000,,2013-06-14 14:11:00,
2013-06-14 07:43:00,45.0,36.0,-100.00,SW,216,3.0,7.0,71,0.00,,,0.02,156.000000,,2013-06-14 14:43:00,
2013-06-14 07:52:00,45.0,36.0,-100.00,SW,216,3.0,7.0,71,0.00,,,0.02,156.000000,,2013-06-14 14:52:00,
2013-06-14 08:01:00,45.0,36.0,-100.00,SW,216,3.0,7.0,71,0.00,,,0.02,156.000000,,2013-06-14 15:01:00,
2013-06-14 08:11:00,45.0,36.0,-100.00,SW,216,3.0,7.0,71,0.00,,,0.02,156.000000,,2013-06-14 15:11:00,
2013-06-14 08:33:00,49.0,37.0,-100.00,ESE,106,3.0,6.0,63,0.00,,,0.02,443.000000,,2013-06-14 15:33:00,
2013-06-14 08:44:00,49.0,37.0,-100.00,ESE,106,3.0,6.0,63,0.00,,,0.02,443.000000,,2013-06-14 15:44:00,
2013-06-14 08:53:00,49.0,37.0,-100.00,ESE,106,3.0,6.0,63,0.00,,,0.02,443.000000,,2013-06-14 15:53:00,
2013-06-14 09:01:00,49.0,37.0,-100.00,ESE,106,3.0,6.0,63,0.00,,,0.02,443.000000,,2013-06-14 16:01:00,
2013-06-14 09:11:00,49.0,37.0,-100.00,ESE,106,3.0,6.0,63,0.00,,,0.02,443.000000,,2013-06-14 16:11:00,
2013-06-14 09:33:00,52.0,37.0,-100.00,SE,124,5.0,12.0,57,0.00,,,0.02,634.000000,,2013-06-14 16:33:00,
2013-06-14 09:43:00,52.0,37.0,-100.00,SE,124,5.0,12.0,57,0.00,,,0.02,634.000000,,2013-06-14 16:43:00,
2013-06-14 09:53:00,52.0,37.0,-100.00,SE,124,5.0,12.0,57,0.00,,,0.02,634.000000,,2013-06-14 16:53:00,
2013-06-14 10:02:00,52.0,37.0,-100.00,SE,124,5.0,12.0,57,0.00,,,0.02,634.000000,,2013-06-14 17:02:00,
2013-06-14 10:11:00,52.0,37.0,-100.00,SE,124,5.0,12.0,57,0.00,,,0.02,634.000000,,2013-06-14 17:11:00,
2013-06-14 10:34:00,55.0,36.0,-100.00,SW,217,5.0,12.0,49,0.00,,,0.02,863.000000,,2013-06-14 17:34:00,
2013-06-14 10:43:00,55.0,36.0,-100.00,SW,217,5.0,12.0,49,0.00,,,0.02,863.000000,,2013-06-14 17:43:00,
2013-06-14 10:53:00,55.0,36.0,-100.00,SW,217,5.0,12.0,49,0.00,,,0.02,863.000000,,2013-06-14 17:53:00,
2013-06-14 11:02:00,55.0,36.0,-100.00,SW,217,5.0,12.0,49,0.00,,,0.02,863.000000,,2013-06-14 18:02:00,
2013-06-14 11:11:00,55.0,36.0,-100.00,SW,217,5.0,12.0,49,0.00,,,0.02,863.000000,,2013-06-14 18:11:00,
2013-06-14 11:43:00,59.0,38.0,-100.00,ESE,108,4.0,10.0,45,0.00,,,0.02,1039.000000,,2013-06-14 18:43:00,
2013-06-14 11:52:00,59.0,38.0,-100.00,ESE,108,4.0,10.0,45,0.00,,,0.02,1039.000000,,2013-06-14 18:52:00,
2013-06-14 12:01:00,59.0,38.0,-100.00,ESE,108,4.0,10.0,45,0.00,,,0.02,1039.000000,,2013-06-14 19:01:00,
2013-06-14 12:11:00,59.0,38.0,-100.00,ESE,108,4.0,10.0,45,0.00,,,0.02,1039.000000,,2013-06-14 19:11:00,
2013-06-14 12:43:00,60.0,34.0,-100.00,South,176,5.0,14.0,37,0.00,,,0.02,1115.000000,,2013-06-14 19:43:00,
2013-06-14 12:53:00,60.0,34.0,-100.00,South,176,5.0,14.0,37,0.00,,,0.02,1115.000000,,2013-06-14 19:53:00,
2013-06-14 13:01:00,60.0,34.0,-100.00,South,176,5.0,14.0,37,0.00,,,0.02,1115.000000,,2013-06-14 20:01:00,
2013-06-14 13:11:00,60.0,34.0,-100.00,South,176,5.0,14.0,37,0.00,,,0.02,1115.000000,,2013-06-14 20:11:00,
2013-06-14 13:33:00,63.0,36.0,-100.00,SSW,195,6.0,11.0,36,0.00,,,0.02,1098.000000,,2013-06-14 20:33:00,
2013-06-14 13:43:00,63.0,36.0,-100.00,SSW,195,6.0,11.0,36,0.00,,,0.02,1098.000000,,2013-06-14 20:43:00,
2013-06-14 13:53:00,63.0,36.0,-100.00,SSW,195,6.0,11.0,36,0.00,,,0.02,1098.000000,,2013-06-14 20:53:00,
2013-06-14 14:02:00,63.0,36.0,-100.00,SSW,195,6.0,11.0,36,0.00,,,0.02,1098.000000,,2013-06-14 21:02:00,
2013-06-14 14:11:00,63.0,36.0,-100.00,SSW,195,6.0,11.0,36,0.00,,,0.02,1098.000000,,2013-06-14 21:11:00,
2013-06-14 14:43:00,66.0,35.0,-100.00,ESE,110,4.0,16.0,32,0.00,,,-99.99,1079.000000,,2013-06-14 21:43:00,
2013-06-14 14:52:00,66.0,35.0,-100.00,ESE,110,4.0,16.0,32,0.00,,,-99.99,1079.000000,,2013-06-14 21:52:00,
2013-06-14 15:01:00,66.0,35.0,-100.00,ESE,110,4.0,16.0,32,0.00,,,-99.99,1079.000000,,2013-06-14 22:01:00,
2013-06-14 15:11:00,66.0,35.0,-100.00,ESE,110,4.0,16.0,32,0.00,,,-99.99,1079.000000,,2013-06-14 22:11:00,
2013-06-14 15:33:00,68.0,34.0,-100.00,SSW,203,4.0,17.0,28,0.00,,,0.01,890.000000,,2013-06-14 22:33:00,
2013-06-14 15:43:00,68.0,34.0,-100.00,SSW,203,4.0,17.0,28,0.00,,,0.01,890.000000,,2013-06-14 22:43:00,
2013-06-14 15:53:00,68.0,34.0,-100.00,SSW,203,4.0,17.0,28,0.00,,,0.01,890.000000,,2013-06-14 22:53:00,
2013-06-14 16:01:00,68.0,34.0,-100.00,SSW,203,4.0,17.0,28,0.00,,,0.01,890.000000,,2013-06-14 23:01:00,
2013-06-14 16:11:00,68.0,34.0,-100.00,SSW,203,4.0,17.0,28,0.00,,,0.01,890.000000,,2013-06-14 23:11:00,
2013-06-14 16:43:00,67.0,31.0,-100.00,NE,55,7.0,14.0,26,0.00,,,0.01,968.000000,,2013-06-14 23:43:00,
2013-06-14 16:52:00,67.0,31.0,-100.00,NE,55,7.0,14.0,26,0.00,,,0.01,968.000000,,2013-06-14 23:52:00,
2013-06-14 17:01:00,67.0,31.0,-100.00,NE,55,7.0,14.0,26,0.00,,,0.01,968.000000,,2013-06-15 00:01:00,
2013-06-14 17:11:00,67.0,31.0,-100.00,NE,55,7.0,14.0,26,0.00,,,0.01,968.000000,,2013-06-15 00:11:00,
2013-06-14 18:33:00,67.0,29.0,-100.00,NNW,341,8.0,15.0,24,-99.99,,,0.00,583.000000,,2013-06-15 01:33:00,
2013-06-14 18:43:00,67.0,29.0,-100.00,NNW,341,8.0,15.0,24,-99.99,,,0.00,583.000000,,2013-06-15 01:43:00,
2013-06-14 18:54:00,67.0,29.0,-100.00,NNW,341,8.0,15.0,24,-99.99,,,0.00,583.000000,,2013-06-15 01:54:00,
2013-06-14 19:02:00,67.0,29.0,-100.00,NNW,341,8.0,15.0,24,-99.99,,,0.00,583.000000,,2013-06-15 02:02:00,
2013-06-14 19:11:00,67.0,29.0,-100.00,NNW,341,8.0,15.0,24,-99.99,,,0.00,583.000000,,2013-06-15 02:11:00,
2013-06-14 19:43:00,65.0,34.0,-100.00,North,4,5.0,13.0,31,0.00,,,0.00,360.000000,,2013-06-15 02:43:00,
2013-06-14 19:53:00,65.0,34.0,-100.00,North,4,5.0,13.0,31,0.00,,,0.00,360.000000,,2013-06-15 02:53:00,
2013-06-14 20:01:00,65.0,34.0,-100.00,North,4,5.0,13.0,31,0.00,,,0.00,360.000000,,2013-06-15 03:01:00,
2013-06-14 20:11:00,65.0,34.0,-100.00,North,4,5.0,13.0,31,0.00,,,0.00,360.000000,,2013-06-15 03:11:00,
2013-06-14 20:44:00,61.0,32.0,-100.00,NNW,341,8.0,15.0,34,0.00,,,0.00,157.000000,,2013-06-15 03:44:00,
2013-06-14 20:53:00,61.0,32.0,-100.00,NNW,341,8.0,15.0,34,0.00,,,0.00,157.000000,,2013-06-15 03:53:00,
2013-06-14 21:01:00,61.0,32.0,-100.00,NNW,341,8.0,15.0,34,0.00,,,0.00,157.000000,,2013-06-15 04:01:00,
2013-06-14 21:11:00,61.0,32.0,-100.00,NNW,341,8.0,15.0,34,0.00,,,0.00,157.000000,,2013-06-15 04:11:00,
2013-06-14 21:43:00,58.0,31.0,-100.00,NNE,12,5.0,10.0,35,0.00,,,0.00,17.000000,,2013-06-15 04:43:00,
2013-06-14 21:54:00,58.0,31.0,-100.00,NNE,12,5.0,10.0,35,0.00,,,0.00,17.000000,,2013-06-15 04:54:00,
2013-06-14 22:02:00,58.0,31.0,-100.00,NNE,12,5.0,10.0,35,0.00,,,0.00,17.000000,,2013-06-15 05:02:00,
2013-06-14 22:12:00,58.0,31.0,-100.00,NNE,12,5.0,10.0,35,0.00,,,0.00,17.000000,,2013-06-15 05:12:00,
2013-06-14 22:43:00,56.0,29.0,-100.00,ENE,74,6.0,9.0,35,0.00,,,0.00,0.000000,,2013-06-15 05:43:00,
2013-06-14 22:52:00,56.0,29.0,-100.00,ENE,74,6.0,9.0,35,0.00,,,0.00,0.000000,,2013-06-15 05:52:00,
2013-06-14 23:02:00,56.0,29.0,-100.00,ENE,74,6.0,9.0,35,0.00,,,0.00,0.000000,,2013-06-15 06:02:00,
2013-06-14 23:11:00,56.0,29.0,-100.00,ENE,74,6.0,9.0,35,0.00,,,0.00,0.000000,,2013-06-15 06:11:00,
2013-06-14 23:33:00,54.0,31.0,-100.00,NNE,32,8.0,13.0,42,0.00,,,0.00,0.000000,,2013-06-15 06:33:00,
2013-06-14 23:43:00,54.0,31.0,-100.00,NNE,32,8.0,13.0,42,0.00,,,0.00,0.000000,,2013-06-15 06:43:00,
2013-06-14 23:53:00,54.0,31.0,-100.00,NNE,32,8.0,13.0,42,0.00,,,0.00,0.000000,,2013-06-15 06:53:00,